Almeria, Spain

11:05 PM CEST on April 28, 2017 (GMT +0200)
Almeria

Weather History for LEAM - January, 2013

Change the Weather History Date:

Thursday, January 24, 2013

  Actual Average Record
Temperature  
Mean Temperature 58 °F -  
Max Temperature 67 °F 60 °F 67 °F (2013)
Min Temperature 49 °F 47 °F 44 °F (2000)
Degree Days  
Heating Degree Days 7    
Growing Degree Days 8 (Base 50)    
Moisture  
Dew Point 49 °F    
Average Humidity 66    
Maximum Humidity 82    
Minimum Humidity 31    
Precipitation  
Precipitation 0.00 in 0.03 in - ()
Sea Level Pressure  
Sea Level Pressure 29.87 in    
Wind  
Wind Speed 15 mph ()    
Max Wind Speed 36 mph    
Max Gust Speed 51 mph    
Visibility 6.6 miles    
Events      
Averages and records for this station are not official NWS values.
T = Trace of Precipitation, MM = Missing Value Source: Averaged Metar Reports

Daily Weather History Graph

Daily Weather History Graph

Search for Another Location

Airport or City:

Trip Planner

Search our weather history database for the weather conditions in past years. The results will help you decide how hot, cold, wet, or windy it might be!

Date:

Astronomy

Jan. 24, 2013 Rise Set
Actual Time 8:17 AM CET 6:26 PM CET
Civil Twilight 7:49 AM CET 6:54 PM CET
Nautical Twilight 7:18 AM CET 7:25 PM CET
Astronomical Twilight 6:47 AM CET 7:56 PM CET
Moon 4:16 PM CET (1/24) 6:03 AM CET (1/24)
Length of Visible Light 11h 04m
Length of Day
10h 08m
Waxing Gibbous, 93% of the Moon is Illuminated
Jan 24
Waxing Gibbous
Jan 27
Full
Feb 3
Last Quarter
Feb 10
New
Feb 17
First Quarter

Hourly Weather History & Observations

Time (CET) Temp. Dew Point Humidity Pressure Visibility Wind Dir Wind Speed Gust Speed Precip Events Conditions
1:00 AM 49 °F 38 °F 55% 30.03 in - WSW 4.6 mph - -  
7:30 AM 57.2 °F 51.8 °F 82% 29.83 in 6.2 mi SW 21.9 mph 34.5 mph N/A   Partly Cloudy
8:00 AM 59.0 °F 51.8 °F 77% 29.83 in 6.2 mi WSW 26.5 mph - N/A   Scattered Clouds
8:30 AM 57.2 °F 51.8 °F 82% 29.83 in 6.2 mi WSW 28.8 mph 42.6 mph N/A   Scattered Clouds
9:00 AM 59.0 °F 51.8 °F 77% 29.83 in 6.2 mi SW 28.8 mph - N/A   Scattered Clouds
9:21 AM 59.0 °F 53.6 °F 82% 29.83 in 6.2 mi SW 33.4 mph 49.5 mph N/A   Scattered Clouds
9:30 AM 59.0 °F 51.8 °F 77% 29.83 in 6.2 mi SW 35.7 mph 50.6 mph N/A   Scattered Clouds
10:00 AM 59.0 °F 53.6 °F 82% 29.83 in 6.2 mi SW 31.1 mph - N/A   Scattered Clouds
10:30 AM 62.6 °F 50.0 °F 63% 29.83 in 6.2 mi SSW 26.5 mph 38.0 mph N/A   Scattered Clouds
11:00 AM 62.6 °F 48.2 °F 59% 29.83 in 6.2 mi SSW 19.6 mph 31.1 mph N/A   Scattered Clouds
11:30 AM 64.4 °F 50.0 °F 59% 29.83 in 6.2 mi SSW 16.1 mph - N/A   Scattered Clouds
12:00 PM 64.4 °F 50.0 °F 59% 29.86 in 6.2 mi SSE 11.5 mph - N/A   Scattered Clouds
12:30 PM 64.4 °F 50.0 °F 59% 29.86 in 6.2 mi South 10.4 mph - N/A   Scattered Clouds
1:00 PM 62 °F 47 °F 49% 29.87 in 12 mi South 17.3 mph - -   Scattered Clouds
1:00 PM 62.6 °F 48.2 °F 59% 29.86 in 6.2 mi South 17.3 mph - N/A   Scattered Clouds
1:30 PM 68.0 °F 46.4 °F 46% 29.86 in 6.2 mi Variable 3.5 mph - N/A   Scattered Clouds
1:44 PM 69.8 °F 37.4 °F 31% 29.86 in 6.2 mi NW 20.7 mph 38.0 mph N/A   Scattered Clouds
2:00 PM 69.8 °F 48.2 °F 46% 29.86 in 6.2 mi NW 23.0 mph 41.4 mph N/A   Scattered Clouds
2:30 PM 62.6 °F 50.0 °F 63% 29.86 in 6.2 mi South 12.7 mph 24.2 mph N/A   Scattered Clouds
3:00 PM 62.6 °F 50.0 °F 63% 29.86 in 6.2 mi SW 13.8 mph 26.5 mph N/A   Scattered Clouds
3:30 PM 62.6 °F 50.0 °F 63% 29.86 in 6.2 mi WSW 11.5 mph - N/A   Scattered Clouds
4:00 PM 64.4 °F 48.2 °F 56% 29.86 in 6.2 mi WSW 9.2 mph - N/A   Scattered Clouds
4:30 PM 62.6 °F 51.8 °F 68% 29.86 in 6.2 mi SSW 12.7 mph - N/A   Scattered Clouds
5:00 PM 62.6 °F 51.8 °F 68% 29.86 in 6.2 mi SW 15.0 mph - N/A   Scattered Clouds
5:30 PM 60.8 °F 53.6 °F 77% 29.86 in 6.2 mi SSW 12.7 mph - N/A   Scattered Clouds
6:00 PM 59.0 °F 53.6 °F 82% 29.86 in 6.2 mi SW 8.1 mph - N/A   Scattered Clouds
6:30 PM 59.0 °F 53.6 °F 82% 29.86 in 6.2 mi WSW 4.6 mph - N/A   Scattered Clouds
7:00 PM 57 °F 50 °F 70% 29.90 in 16 mi WSW 2.3 mph - -   Scattered Clouds
7:00 PM 59.0 °F 51.8 °F 77% 29.89 in 6.2 mi Variable 2.3 mph - N/A   Partly Cloudy
7:30 PM 57.2 °F 50.0 °F 77% 29.89 in 6.2 mi Variable 1.2 mph - N/A   Partly Cloudy
8:00 PM 59.0 °F 46.4 °F 63% 29.89 in 6.2 mi Variable 5.8 mph - N/A   Partly Cloudy
8:30 PM 59.0 °F 51.8 °F 77% 29.89 in 6.2 mi Variable 4.6 mph - N/A   Partly Cloudy
9:00 PM 60.8 °F 44.6 °F 55% 29.89 in 6.2 mi Variable 9.2 mph - N/A   Partly Cloudy
9:30 PM 62.6 °F 35.6 °F 37% 29.89 in 6.2 mi Variable 3.5 mph - N/A   Partly Cloudy
10:00 PM 59.0 °F 46.4 °F 63% 29.89 in 6.2 mi Variable 2.3 mph - N/A   Partly Cloudy
10:30 PM 57.2 °F 50.0 °F 77% 29.92 in 6.2 mi NNE 5.8 mph - N/A   Partly Cloudy